Location: Pf�ffikon
(47.2015°N, 8.7809°E)
Time: 22:07:55
(UTC+00:00)

Cosmos 1400 Rocket - Pass Details

Date: 07 June 2020
Orbit: 522 x 568 km, 81.2° (Epoch: 07 July)

Event Time Altitude Azimuth Distance (km) Brightness Sun altitude
Rises 01:37:52 0° 335° (NNW) 2,780 6.9 -13.8°
Reaches altitude 10° 01:40:28 10° 319° (NW) 1,876 5.7 -13.5°
Maximum altitude 01:43:33 20° 271° (W) 1,324 4.5 -13.3°
Enters shadow 01:45:00 17° 243° (WSW) 1,460 4.5 -13.1°
